Location: Alisos
(32.4024°N, 116.9216°W)
Time: 04:38:02
(UTC+00:00)

Daily predictions for brighter satellites

Satellite Brightness Start Highest point End
(mag) Time Altitude Azimuth Time Altitude Azimuth Time Altitude Azimuth
COSMOS 2406 3.3 03:17:56 10° SSW 03:23:41 85° ESE 03:29:27 10° NNE
Meteosat 1 Rocket2 4.0 03:19:44 10° W 03:24:18 51° S 03:31:04 10° ESE
Cosmos 1980 Rocket 2.7 03:19:13 10° N 03:24:39 44° ENE 03:30:00 10° SE
CARTOSAT-1 4.2 03:20:59 10° SE 03:24:53 37° ENE 03:28:48 10° N
Cosmos 1633 Rocket 3.4 03:22:14 10° N 03:26:27 47° E 03:30:37 10° SSE
DELTA 2 DEB (DPAF) 4.3 03:23:02 10° NNE 03:27:06 47° E 03:31:08 10° S
Delta 168 4.2 03:24:24 10° WSW 03:29:02 42° S 03:35:48 10° ESE
Cosmos 1627 Rocket 4.5 03:28:08 10° S 03:34:22 83° E 03:40:33 10° N
Cosmos 1626 3.6 03:34:24 10° SSW 03:37:18 33° W 03:40:14 10° NNW
SJ-6B 4.0 03:36:26 10° S 03:39:49 39° W 03:43:13 10° NNW
USA 186 1.9 03:37:47 10° S 03:41:04 85° WSW 03:44:24 10° NNW
Cosmos 1470 Rocket 4.0 03:37:51 10° N 03:41:57 41° E 03:46:01 10° SSE
Cosmos 1470 4.2 03:39:18 10° NNE 03:42:00 19° ENE 03:44:06 13° ESE
Okean O Rocket 1.9 03:38:20 10° SSE 03:42:34 49° ENE 03:46:47 10° N
KORONAS-FOTON 4.1 03:39:12 10° SSE 03:42:44 44° E 03:46:17 10° NNE
Lacrosse 5 rocket 3.6 03:40:04 10° WNW 03:43:05 20° WSW 03:46:02 10° SSW
Cosmos 1666 Rocket 3.8 03:44:44 10° NNW 03:49:04 70° W 03:53:24 10° S
Cosmos 1842 3.1 03:45:50 10° S 03:49:25 61° E 03:53:01 10° NNE
Tiangong -0.5 03:51:36 10° NW 03:54:24 28° NNE 03:57:06 11° E
CZ-4 R/B 3.0 03:54:22 10° SSW 03:57:53 32° W 04:01:29 10° NNW
CZ-4B R/B 3.4 03:52:43 10° S 03:57:57 71° WSW 04:03:16 10° NNW
SPOT 5 3.7 04:01:22 17° ESE 04:03:39 27° ENE 04:07:20 10° NNE
Cosmos 1954 Rocket 4.3 03:58:49 10° SSW 04:04:05 71° WNW 04:09:22 10° NNE
Cosmos 1933 Rocket 4.2 04:01:59 10° N 04:06:08 39° E 04:08:38 21° SE
SL-24 R/B 4.2 04:03:20 11° SSE 04:08:08 80° ENE 04:12:31 10° N
Cosmos 1707 2.5 04:07:26 10° S 04:11:01 86° W 04:14:38 10° N
In-Cosmos 22 4.4 04:06:18 10° S 04:11:47 53° E 04:17:10 10° NNE
Meteor 2-12 Rocket 4.5 04:07:15 10° S 04:13:24 85° W 04:19:35 10° N
Resurs 01 Rocket 2.4 04:09:19 10° S 04:13:35 49° W 04:17:51 10° NNW
ASTRO E2 2.5 04:10:27 10° WSW 04:13:47 48° SSE 04:15:15 28° ESE
Cosmos 2360 Rocket 4.3 04:13:37 10° NNE 04:15:48 12° NE 04:17:58 10° ENE
Cosmos 676 Rocket 4.4 04:10:38 10° SSW 04:15:55 68° WNW 04:21:13 10° N
PSLV R/B 4.0 04:14:50 14° S 04:17:44 58° W 04:21:12 10° NNW
RESURS DK-1 4.4 04:21:49 10° NNE 04:24:05 14° ENE 04:25:03 13° ENE
SJ 16-02 3.0 04:27:07 17° E 04:27:07 17° E 04:29:13 10° NE
SL-16 R/B 3.1 04:23:35 10° N 04:28:41 34° ENE 04:31:06 24° ESE
SL-27 R/B 4.1 04:31:11 15° NE 04:31:11 15° NE 04:31:54 10° NE
ERS-1 Rocket 3.7 04:29:37 27° ESE 04:31:32 37° ENE 04:36:07 10° N
Cosmos 2333 Rocket 4.1 04:29:28 10° NNE 04:32:57 16° ENE 04:35:10 13° E
CZ-4C R/B 3.8 04:29:14 10° N 04:33:21 65° WNW 04:37:21 10° SSW
Cosmos 2369 4.2 04:28:03 10° NNW 04:33:41 59° WSW 04:37:46 19° S
Terra 2.7 04:35:24 28° ESE 04:36:41 33° ENE 04:40:53 10° N
Cosmos 1833 4.5 04:36:17 27° SSE 04:38:54 44° ESE 04:44:13 10° NE
MetOp-B 4.1 04:36:46 28° SSE 04:39:37 76° ENE 04:44:58 10° N
Cosmos 841 Rocket 4.2 04:36:08 10° N 04:41:02 38° ENE 04:42:38 31° ESE
Cosmos 1763 Rocket 4.0 04:36:38 10° NNW 04:41:43 54° WSW 04:44:58 21° S
Atlas Centaur 2 3.0 04:33:56 10° W 04:41:57 74° S 04:47:22 24° ESE
Spot 2 Rocket 4.2 04:44:22 32° ESE 04:45:43 38° ENE 04:50:22 10° N
Cosmos 1300 4.2 04:45:21 10° NNE 04:47:23 20° ENE 04:47:23 20° ENE
Cosmos 1400 Rocket 2.9 04:50:13 31° SSW 04:51:55 69° W 04:55:46 10° N
Cosmos 1441 Rocket 3.3 04:51:23 10° NNW 04:54:58 62° W 04:55:39 50° SSW
Cosmos 1932 4.4 04:49:30 13° SSW 04:55:04 62° ESE 05:01:17 10° NE
USA 234 4.1 04:49:03 10° NNE 04:55:20 52° NW 05:01:37 10° WSW
Cosmos 2315 Rocket 4.4 04:49:30 10° N 04:55:36 46° E 04:57:29 36° ESE
ARGOS Delta rocket 3.8 04:55:11 36° S 04:56:56 67° W 05:01:19 10° NNW
ATLAS CENTAUR R/B 2.6 04:54:29 10° SW 04:57:39 34° WNW 05:00:53 10° N
Cosmos 1733 Rocket 4.2 04:54:29 10° NNE 04:58:06 29° ENE 04:58:06 29° ENE
Cosmos 1356 Rocket 3.3 04:58:19 63° SE 04:58:40 67° E 05:02:50 10° NNE
Cosmos 1908 3.8 04:55:52 10° NNW 04:59:20 48° W 05:00:08 40° SW
IRS-1A Rocket 4.1 04:57:26 37° SSE 04:59:43 88° WSW 05:05:14 10° NNW
Okean-O 3.8 04:57:59 21° SSW 05:00:18 37° W 05:04:24 10° NNW
Cosmos 1417 Rocket 4.5 04:59:01 10° N 05:05:10 78° W 05:08:06 33° S
Cosmos 1980 Rocket 4.3 05:04:16 10° NW 05:08:11 19° W 05:12:06 10° SW
USA 245 3.1 05:09:33 72° NNW 05:09:33 72° NNW 05:13:09 10° NNW
Ariane Rocket 3.0 05:09:34 54° ESE 05:10:26 64° ENE 05:15:29 10° N
Cosmos 2322 Rocket 2.6 05:05:26 10° N 05:10:56 48° ENE 05:12:00 43° E
Meteor 2-10 Rocket 3.5 05:06:56 10° N 05:12:24 71° E 05:13:20 57° SE
Meteor 1-12 Rocket 4.3 05:08:11 10° N 05:14:13 75° E 05:15:46 51° SSE
Meteor 1-22 Rocket 4.3 05:08:29 10° N 05:14:15 82° W 05:16:17 44° S
Cosmos 2228 Rocket 3.3 05:16:47 54° SW 05:17:42 71° W 05:22:16 10° N
Landsat 4 4.5 05:19:35 41° N 05:19:35 41° N 05:21:59 10° N
Okean O Rocket 4.4 05:17:48 10° WSW 05:19:01 11° W 05:20:14 10° WNW
BlueWalker 3 4.0 05:22:32 19° NE 05:22:32 19° NE 05:23:41 10° NE
Cosmos 2278 4.1 05:18:28 10° NNW 05:24:02 56° WSW 05:25:33 43° SSW
MOS 1 Rocket 3.6 05:26:15 62° S 05:27:12 84° WSW 05:32:34 10° NNW
Meteor 1-21 4.4 05:28:09 43° SSW 05:30:07 74° W 05:35:56 10° N
Tiangong 0.4 05:28:13 10° WNW 05:29:15 18° W 05:29:15 18° W
Cosmos 2219 Rocket 3.4 05:30:06 10° N 05:35:00 29° ENE 05:35:22 29° ENE
SeaSat 1 2.4 05:37:33 71° SW 05:37:42 72° WSW 05:42:36 10° NNW
Cosmos 968 Rocket 4.4 05:35:06 24° SW 05:37:48 45° WNW 05:42:45 10° N
MetOp-A 4.3 05:38:18 53° ENE 05:38:18 53° ENE 05:43:16 10° N
Spot 1 4.4 05:34:21 10° N 05:39:00 73° WNW 05:39:19 70° WSW
ATLAS 2AS CENTAUR R/B 3.0 05:33:27 10° NNW 05:39:58 50° NE 05:41:14 44° E
SPOT 3 Rocket 3.6 05:41:18 65° SW 05:41:41 68° WSW 05:46:49 10° NNW
Landsat 5 4.1 05:41:42 10° N 05:45:11 54° NW 05:45:11 54° NW
Okean 3 4.2 05:46:51 48° NW 05:46:51 48° NW 05:50:18 10° N
Cosmos 1346 Rocket 4.0 05:43:28 10° NNW 05:46:06 40° NNW 05:46:06 40° NNW
Cosmos 1814 Rocket 4.2 05:53:22 10° N 05:58:07 64° NNE 05:58:07 64° NNE
Cosmos 2360 Rocket 2.1 05:54:44 10° NNW 06:00:15 79° W 06:00:15 79° W
RESURS DK-1 4.1 05:58:11 10° NW 06:00:39 28° WNW 06:00:39 28° WNW
SJ 16-02 3.0 06:03:48 26° W 06:04:20 27° WNW 06:08:01 10° N
COSMOS 2455 3.4 06:10:53 45° ENE 06:10:53 45° ENE 06:15:14 10° NNE
SL-16 R/B 3.6 06:07:56 10° NW 06:12:33 26° WSW 06:12:57 26° WSW
Terra 3.8 06:14:06 19° W 06:14:16 19° W 06:17:34 10° NW
Cosmos 2333 Rocket 2.5 06:11:56 10° NNW 06:17:10 60° W 06:17:10 60° W
Cosmos 839 Rocket 4.0 06:21:44 10° NNW 06:27:50 77° NNE 06:27:50 77° NNE
ARIANE 5 R/B 4.3 06:30:35 30° N 06:30:35 30° N 06:32:52 10° N
Atlas Centaur 2 3.6 06:23:19 10° W 06:29:34 42° SW 06:29:34 42° SW
Cosmos 1709 Rocket 4.4 06:33:06 53° ENE 06:33:06 53° ENE 06:38:24 10° NNE
Cosmos 2227 Rocket 4.3 06:37:23 16° ENE 06:37:23 16° ENE 06:38:50 10° NE
Cosmos 2237 Rocket 4.3 06:32:27 10° NNE 06:35:50 16° ENE 06:36:08 16° ENE
Cosmos 2322 4.3 06:34:37 10° NNW 06:39:08 50° NNE 06:39:08 50° NNE
CZ-4C R/B 3.4 06:43:38 29° NNE 06:43:38 29° NNE 06:46:14 10° NNE
Cosmos 2297 Rocket 3.1 06:56:04 42° NNE 06:56:04 42° NNE 06:59:46 10° NNE
Cosmos 2322 Rocket 4.2 06:50:45 10° WNW 06:53:48 18° W 06:53:48 18° W
Meteor 2-5 Rocket 4.4 07:18:28 54° N 07:18:28 54° N 07:22:56 10° N
Cosmos 2219 Rocket 3.8 07:13:53 10° NW 07:17:04 26° WNW 07:17:04 26° WNW
COSMOS 2428 3.6 07:16:56 10° NNW 07:20:46 43° NW 07:20:46 43° NW
Cosmos 2263 Rocket 4.3 07:28:45 17° ENE 07:28:45 17° ENE 07:30:25 10° NE
USA 281 3.8 07:28:43 48° WNW 07:28:43 48° WNW 07:33:56 10° NNW
ATLAS 2AS CENTAUR R/B 4.2 07:25:15 10° WNW 07:28:39 22° W 07:28:39 22° W
Cosmos 2181 Rocket 4.4 07:38:46 10° N 07:43:33 56° N 07:43:33 56° N
Cosmos 2074 Rocket 4.5 07:48:37 56° NNE 07:48:37 56° NNE 07:53:26 10° N
SL-12 R/B(2) 4.2 08:07:12 66° W 08:07:54 69° WNW 08:16:58 10° NNE
SL-16 R/B 3.6 08:08:52 10° N 08:13:49 31° ENE 08:13:49 31° ENE
Cosmos 2227 Rocket 3.4 08:19:09 34° NW 08:19:09 34° NW 08:23:23 10° N
CENTAUR R/B 3.2 08:20:13 42° NW 08:20:13 42° NW 08:25:43 10° NNE
Cosmos 2237 Rocket 3.5 08:14:43 10° NNW 08:17:55 34° NW 08:17:55 34° NW
Nadezhda 3 Rocket 4.3 08:25:28 10° N 08:30:36 63° N 08:30:36 63° N
Cosmos 2219 4.2 08:43:27 39° NW 08:43:27 39° NW 08:47:43 10° N
ADEOS II 4.5 08:45:10 10° ENE 08:47:23 13° E 08:47:23 13° E
Resurs 1-4 Rocket 3.4 08:59:04 10° NE 09:03:13 32° E 09:03:13 32° E
SL-8 Rocket 4.0 09:06:26 75° N 09:06:26 75° N 09:12:04 10° N
Cosmos 2263 Rocket 3.3 09:10:25 35° NW 09:10:25 35° NW 09:14:49 10° N
NOSS 3-2 (C) 3.7 09:16:18 51° NNW 09:16:18 51° NNW 09:21:08 10° NNE
Meteor 2-1 Rocket 4.4 09:12:35 10° N 09:17:52 73° N 09:17:52 73° N
Cosmos 1680 Rocket 4.1 09:18:11 10° N 09:23:14 50° ENE 09:23:20 50° ENE
Cosmos 1959 Rocket 4.4 09:25:42 76° WNW 09:25:42 76° WNW 09:31:55 10° N
USA 267 3.8 09:20:27 10° ENE 09:26:35 43° SE 09:26:45 43° SE
Cosmos 1844 Rocket 3.0 09:29:05 54° E 09:29:05 54° E 09:34:17 10° NNE
Cosmos 1818 4.2 09:25:26 10° NNW 09:30:46 52° ENE 09:32:05 42° ESE
BREEZE-M DEB (TANK) 4.2 09:45:15 23° NNE 09:46:01 26° NE 09:50:23 10° ESE
IDEFIX/ARIANE 42P 2.7 09:44:33 10° N 09:49:25 60° WNW 09:49:25 60° WNW
SL-16 R/B 3.7 09:53:00 10° NW 09:55:38 22° WNW 09:55:38 22° WNW
Mugunghwa Rocket 4.2 09:59:07 50° SSE 09:59:07 50° SSE 10:04:59 10° E
CZ-2C R/B 2.8 09:54:32 10° NNE 09:59:50 88° WNW 10:00:02 83° SW
CZ-2C R/B 2.5 09:59:28 67° SSE 10:00:11 83° ENE 10:05:32 10° N
Cosmos 1125 Rocket 4.1 10:01:35 42° SE 10:02:32 47° ESE 10:07:36 10° NNE
CZ-2D R/B 2.1 10:02:41 10° N 10:07:54 60° WNW 10:08:12 59° W
Cosmos 2228 4.1 10:03:51 10° NNW 10:06:35 34° NW 10:06:35 34° NW
Cosmos 1821 Rocket 4.1 10:09:42 50° WSW 10:10:20 52° W 10:16:18 10° N
MSX 4.1 10:05:05 10° N 10:10:33 48° WNW 10:11:12 46° W
Cosmos 1867 4.2 10:10:54 39° WNW 10:11:32 41° WNW 10:16:41 10° NNE
Cosmos 1943 3.0 10:06:00 10° NNW 10:11:37 84° WSW 10:12:58 54° S
FENGYUN 3A 3.5 10:09:29 10° N 10:14:53 83° WNW 10:15:51 61° SSW
SL-24 DEB 4.2 10:11:51 10° N 10:16:25 74° E 10:17:01 64° SSE
AQUA 3.6 10:14:24 10° NNE 10:19:08 90° E 10:19:41 70° SSW
USA 238 DEB 4.3 10:20:07 32° W 10:21:55 38° NW 10:27:57 10° NNE
USA 238 4.3 10:20:10 32° W 10:21:57 39° NW 10:28:01 10° NNE
ALOS 2.3 10:20:34 10° NNE 10:25:11 73° ESE 10:26:09 53° SSE
ADEOS II 2.2 10:22:07 10° N 10:27:17 60° WNW 10:28:15 51° WSW
SAR-Lupe-4 3.9 10:26:27 10° NNE 10:29:58 56° ESE 10:30:06 56° ESE
Delta 142 4.1 10:30:17 48° S 10:30:17 48° S 10:35:39 10° ESE
BREEZE-M DEB (TANK) 2.9 10:30:15 61° SE 10:30:21 61° SE 10:36:51 10° NE
ATLAS 5 CENTAUR R/B 1.8 10:37:32 37° ESE 10:37:34 37° ESE 10:40:39 10° NE
Cosmos 921 Rocket 2.7 10:38:29 10° NNW 10:42:40 75° WSW 10:43:33 53° S
Resurs 1-4 Rocket 3.3 10:39:06 10° NNW 10:43:20 25° WNW 10:44:17 24° W
NOSS 2-3 (D) 4.4 10:43:31 29° SSE 10:44:28 33° ESE 10:47:48 10° NE
Meteor 1-28 Rocket 2.8 10:44:34 73° WSW 10:44:38 73° W 10:48:09 10° NNW
Cosmos 2058 2.7 10:46:01 51° S 10:46:59 88° W 10:51:03 10° N
Cosmos 1934 Rocket 4.0 10:44:13 34° SSW 10:47:03 66° W 10:53:23 10° N
Cosmos 1606 Rocket 3.7 10:43:26 10° NNW 10:47:43 51° W 10:48:21 46° WSW
SL-16 R/B 2.5 10:44:24 15° SSE 10:49:48 82° WSW 10:56:04 10° NNW
IRAS Rocket 4.1 10:46:10 10° NNE 10:51:39 80° WNW 10:54:26 31° SSW
Cosmos 2123 Rocket 3.9 10:47:49 10° N 10:54:01 80° W 10:59:02 16° S
NOSS 2-2 (C) 2.7 10:54:30 61° SW 10:55:02 84° WNW 10:58:11 10° NNE
CZ-4 R/B 4.2 10:53:30 10° NNE 10:58:25 64° ESE 11:01:56 19° S
Cosmos 2298 Rocket 4.0 10:56:46 29° SSW 10:59:32 88° WNW 11:04:53 10° NNE
Cosmos 1726 Rocket 3.8 10:58:30 10° NNW 11:02:44 46° W 11:04:07 34° SW
NOSS 2-2 (D) 3.0 11:03:33 38° SSW 11:04:46 70° ESE 11:07:57 10° NE
Cosmos 1238 Rocket 2.6 11:02:34 10° N 11:05:40 57° E 11:07:24 21° SSE
USA 267 3.9 11:03:22 10° NNE 11:09:30 45° NW 11:14:06 18° WSW
NOSS 2-3 (E) 3.0 11:10:11 34° SSW 11:11:40 88° WNW 11:15:22 10° NNE
Delta 2 Rocket 3.2 11:08:38 16° WNW 11:11:42 88° SSW 11:16:04 10° ESE
Cosmos 1844 Rocket 4.5 11:10:44 14° W 11:13:02 17° WNW 11:16:36 10° NNW
METEOR-M 4.1 11:08:23 10° N 11:13:43 80° WNW 11:17:41 18° SSW
NOAA 11 4.1 11:08:36 10° NNE 11:14:06 88° WNW 11:18:27 16° SSW
NOSS 2-3 (C) 3.0 11:15:42 31° SW 11:17:19 75° WNW 11:20:59 10° NNE
SEDSat Delta rocket 2.6 11:19:21 20° W 11:22:02 77° S 11:26:05 10° E
H-2A R/B 3.8 11:19:00 10° NE 11:23:33 29° E 11:27:59 10° SSE
Cosmos 724 4.3 11:18:53 10° NNW 11:24:44 89° WSW 11:30:37 10° SSE
Cosmos 1544 3.7 11:26:12 22° WNW 11:26:12 22° WNW 11:28:15 10° NNW
IRS-1D 3.7 11:23:04 10° NNE 11:28:12 74° ESE 11:33:12 10° S
Orbus 7S? 4.4 11:25:26 10° NW 11:29:20 48° SW 11:37:44 10° SSE
Cosmos 1602 Rocket 3.7 11:25:18 10° S 11:29:44 76° E 11:34:11 10° N
Cosmos 1271 Rocket 2.7 11:29:52 10° S 11:33:21 70° E 11:36:55 10° NNE
CZ-2C R/B 2.2 11:29:48 10° N 11:34:20 71° WNW 11:38:37 12° SSW
Lacrosse 5 3.0 11:30:00 10° S 11:34:36 38° ESE 11:39:16 10° NE
Envisat 3.5 11:32:17 10° N 11:37:03 42° WNW 11:40:57 15° SW
Cosmos 2278 Rocket 2.9 11:32:21 10° S 11:37:50 54° ESE 11:43:20 10° NNE
Cosmos 1862 3.4 11:35:00 10° S 11:38:46 73° E 11:42:33 10° N
UNK 4.4 11:36:42 12° SSW 11:40:26 33° W 11:44:36 10° NNW
Cosmos 1758 Rocket 3.6 11:38:00 11° SSW 11:42:14 63° W 11:46:37 10° N
Cosmos 2058 Rocket 3.9 11:40:05 10° NNW 11:43:55 30° W 11:47:28 11° SSW
Cosmos 1484 Rocket 4.5 11:42:31 10° NNE 11:45:57 31° E 11:49:19 10° SSE
YAOGAN 6 2.7 11:44:15 10° N 11:47:16 41° WNW 11:49:49 13° SW
NOSS 3-1 (C) 4.3 11:45:16 10° S 11:49:22 33° ESE 11:53:53 10° NE
USA 276 2.3 11:47:58 14° SSW 11:50:19 54° SE 11:53:08 10° ENE
SWARM A 4.3 11:47:09 10° S 11:50:40 78° W 11:54:12 10° N
Delta 198 4.5 11:48:35 14° SW 11:51:41 28° S 11:55:08 10° ESE
Cosmos 1812 4.5 11:50:56 10° WNW 11:52:41 13° W 11:53:51 12° WSW
